{"data":{"norad_id":57498,"epoch":"2026-05-25T03:55:28.007904Z","epoch_age_seconds":60886,"freshness":"FRESH","line1":"1 57498U 23113D   26145.16351861  .00011914  00000+0  44253-3 0  9998","line2":"2 57498  43.0063 303.9510 0002194 252.6534 107.4078 15.27523090155399","mean_motion":15.2752309,"eccentricity":0.0002194,"inclination_deg":43.0063,"raan_deg":303.951,"arg_perigee_deg":252.6534,"mean_anomaly_deg":107.4078,"bstar":0.00044253,"rev_number":15539,"period_min":94.270260752654,"perigee_km":481.71412872522,"apogee_km":484.72489196195,"semimajor_km":6861.3565103436,"source":"CELESTRAK","updated_at":"2026-05-25T13:38:18.327458Z"}}